Wetterdaten Frühling 2023

Datum T max T min Regen
01.03.2023 7.9 °C -2.3 °C 0 mm
02.03.2023 10.7 °C -2.4 °C 0 mm
03.03.2023 9.9 °C -1.2 °C 0 mm
04.03.2023 2.9 °C -2.4 °C 0 mm
05.03.2023 4.8 °C 2.5 °C 0 mm
06.03.2023 5.8 °C 1.8 °C 0 mm
07.03.2023 7.1 °C 2.8 °C 0 mm
08.03.2023 13.1 °C 3.3 °C 9.6 mm
09.03.2023 13.8 °C 8.9 °C 2.8 mm
10.03.2023 11.8 °C 3.5 °C 2.2 mm
11.03.2023 6.2 °C -1.2 °C 0.2 mm
12.03.2023 12.1 °C -1.8 °C 0.4 mm
13.03.2023 21.3 °C 8 °C 8.8 mm
14.03.2023 13.3 °C 2.3 °C 0.8 mm
15.03.2023 6.8 °C 0.1 °C 1 mm
16.03.2023 12.3 °C -1.3 °C 0 mm
17.03.2023 18.8 °C 3.4 °C 0 mm
18.03.2023 19.2 °C 4.7 °C 0 mm
19.03.2023 17.1 °C 8 °C 2.8 mm
20.03.2023 13.8 °C 8.2 °C 0.8 mm
21.03.2023 15.4 °C 7.9 °C 0 mm
22.03.2023 20.1 °C 5.7 °C 0 mm
23.03.2023 16.9 °C 13.3 °C 0 mm
24.03.2023 16.2 °C 10.3 °C 3.4 mm
25.03.2023 13 °C 6.1 °C 3 mm
26.03.2023 13.9 °C 5.9 °C 3.8 mm
27.03.2023 7.5 °C 2.1 °C 1.6 mm
28.03.2023 10.2 °C -0.1 °C 0 mm
29.03.2023 16.1 °C 5.7 °C 0 mm
30.03.2023 16.5 °C 11.2 °C 3.8 mm
31.03.2023 15.2 °C 9.4 °C 4.6 mm
01.04.2023 11.1 °C 8.3 °C 1 mm
02.04.2023 11.9 °C 4.3 °C 0.2 mm
03.04.2023 7.4 °C 2.5 °C 0.2 mm
04.04.2023 8.5 °C -1.9 °C 0 mm
05.04.2023 9.9 °C -2.4 °C 0 mm
06.04.2023 13.1 °C -0.9 °C 0 mm
07.04.2023 12.4 °C 6.2 °C 0.8 mm
08.04.2023 11.6 °C 5.4 °C 0 mm
09.04.2023 14.6 °C 4.5 °C 0 mm
10.04.2023 18.3 °C 3.3 °C 0 mm
11.04.2023 14.6 °C 8 °C 2.6 mm
12.04.2023 15.1 °C 7.1 °C 8 mm
13.04.2023 10.9 °C 5.8 °C 0.4 mm
14.04.2023 14.3 °C 2.8 °C 0 mm
15.04.2023 13.6 °C 1.9 °C 3.2 mm
16.04.2023 8.8 °C 7.2 °C 6.6 mm
17.04.2023 12.3 °C 7.7 °C 0.2 mm
18.04.2023 14.1 °C 5.9 °C 0 mm
19.04.2023 12.4 °C 4.7 °C 0.2 mm
20.04.2023 8.8 °C -0.1 °C 1 mm
21.04.2023 19.1 °C 3.3 °C 1 mm
22.04.2023 22.6 °C 9.4 °C 0 mm
23.04.2023 21.1 °C 10.9 °C 0.8 mm
24.04.2023 13.3 °C 8.9 °C 1.8 mm
25.04.2023 10.4 °C 6.7 °C 5 mm
26.04.2023 13.2 °C 3.9 °C 0 mm
27.04.2023 17.8 °C 5.8 °C 0 mm
28.04.2023 15.6 °C 10.2 °C 19.6 mm
29.04.2023 15.2 °C 8.9 °C 0 mm
30.04.2023 17.1 °C 9.8 °C 0 mm
01.05.2023 16.2 °C 7.8 °C 0 mm
02.05.2023 17.6 °C 8.2 °C 0 mm
03.05.2023 18.9 °C 5.8 °C 0 mm
04.05.2023 22.7 °C 5.8 °C 0 mm
05.05.2023 21.5 °C 11.5 °C 4.2 mm
06.05.2023 20.8 °C 12.3 °C 0 mm
07.05.2023 22.6 °C 10.8 °C 0.8 mm
08.05.2023 18.1 °C 13.8 °C 5.4 mm
09.05.2023 21.6 °C 12.2 °C 5.2 mm
10.05.2023 16.2 °C 12.2 °C 4.2 mm
11.05.2023 14.2 °C 10.9 °C 0.8 mm
12.05.2023 15.2 °C 10.2 °C 0 mm
13.05.2023 15.4 °C 8.4 °C 0 mm
14.05.2023 18.9 °C 8.7 °C 0 mm
15.05.2023 19.7 °C 9.6 °C 3.8 mm
16.05.2023 12.9 °C 8.3 °C 0 mm
17.05.2023 13.6 °C 4.1 °C 0 mm
18.05.2023 17.9 °C 3.7 °C 0 mm
19.05.2023 16.2 °C 8.6 °C 0 mm
20.05.2023 23.1 °C 10.1 °C 0 mm
21.05.2023 24.6 °C 13.3 °C 0 mm
22.05.2023 27.6 °C 12.2 °C 0 mm
23.05.2023 20.2 °C 14.3 °C 0 mm
24.05.2023 16.8 °C 9.2 °C 0 mm
25.05.2023 22.4 °C 7.1 °C 0 mm
26.05.2023 23.6 °C 11.7 °C 0 mm
27.05.2023 24.2 °C 10.9 °C 0 mm
28.05.2023 25 °C 8.9 °C 0 mm
29.05.2023 25.6 °C 10.2 °C 0 mm
30.05.2023 23.9 °C 11.8 °C 0 mm
31.05.2023 25.8 °C 11.9 °C 0 mm
 Hinweis zur Datenqualität
∅ Temperatur

10.8 °C

Abweichung vom Mittel

+0.8 °C

Niederschlag

126.6 mm

Abweichung vom Mittel

72 %

27.6 °C

Lufttemperatur
22.05.2023

1029.5 hPa

Luftdruck
28.03.2023

38.6 km/h

Windböen
10.03.2023

126.6 mm

Niederschlag
 

-2.4 °C

Lufttemperatur
05.04.2023

-2.2 °C

Bodentemperatur 5cm
05.04.2023

992 hPa

Luftdruck
09.03.2023
 Hinweis zur Datenqualität